Regional Weather Roundup
Issued by NWS New Orleans/Baton Rouge, LA

Home | Current Version | Previous Version | Text Only | Print | Product List | Glossary On
Versions: 1 2 3 4 5 6 7 8 9 10 11 12 13 14 15 16 17 18 19 20 21 22 23 24 25 26 27 28 29 30 31 32 33 34 35 36 37 38 39 40 41 42 43 44 45 46 47 48 49 50
000
ASUS44 KLIX 211610
RWRLIX
NEW ORLEANS REGIONAL WEATHER ROUNDUP
NATIONAL WEATHER SERVICE NEW ORLEANS LA
1100 AM CDT SUN SEP 21 2014

NOTE: "FAIR" INDICATES FEW OR NO CLOUDS BELOW 12,000 FEET WITH NO
      SIGNIFICANT WEATHER AND/OR OBSTRUCTIONS TO VISIBILITY.
      SKY/WX - SKY CONDITION AND SIGNIFICANT WEATHER.
      TMP - AIR TEMPERATURE.     DP    - DEWPOINT TEMPERATURE.
      RH  - RELATIVE HUMIDITY.   PRES  - PRESSURE.
      HI  - HEAT INDEX.          WCI   - WIND CHILL INDEX.

*  THESE STATIONS ARE NOT NWS OR FAA STATIONS AND ARE NOT UNDER
   NWS QUALITY CONTROL.

LAZ038-040-048-061>063-065>067-069-211700-
SOUTHEAST LOUISIANA

CITY           SKY/WX    TMP DP  RH WIND       PRES   REMARKS
N.O. AUDUBON     N/A     88  71  57 MISG        N/A
N.O. INTL ARPT MOSUNNY   85  69  58 NE10      30.04R
N.O. LAKEFRONT SUNNY     82  71  69 NE9       30.04S
N.O. DOWNTOWN*   N/A     84  66  54 E3        30.04S
SLIDELL        SUNNY     83  68  60 NE8       30.04S
BATON ROUGE    SUNNY     83  68  60 NE7       30.05S
BOOTHVILLE     MOSUNNY   85  74  69 NE10      30.02R
BELLE CHASSE   MOSUNNY   85  71  63 NE10      30.02S
BOGALUSA*        N/A     83  68  60 NE6       30.07S
GALLIANO*      NOT AVBL
NEW ROADS*       N/A     81  69  66 NE3       30.06S
GONZALES*        N/A     82  69  65 NE7       30.04S
HAMMOND*       SUNNY     84  64  51 N8        30.07R
HOUMA*         MOSUNNY   82  54  36 NE10      30.03R
PORT FOURCHON* SUNNY     82  73  74 NE13      30.05R

$$

MSZ070-080>082-211700-
SOUTHERN MISSISSIPPI

CITY           SKY/WX    TMP DP  RH WIND       PRES   REMARKS
MCCOMB         SUNNY     80  65  59 E3        30.07S
GULFPORT       SUNNY     84  68  58 CALM      30.04S
BILOXI         SUNNY     84  68  58 E8        30.04S
PASCAGOULA     SUNNY     84  67  56 NE8       30.04R
STENNIS ARPT*  SUNNY     82  66  57 E8        30.05R

$$

COASTAL OBSERVATIONS
LAKE AND NEARSHORE STATIONS

STATION/POSITION TIME  TEMP    WIND        PRES    WAVE
                       AIR SEA DIR/SP/G            HT/PER
                 (UTC) (F)     (DEG/KT/KT) (MB)    (FT/S)
PASCAGOULA       1600   84      70/ 11/ 13 1016.7
WAVELAND YACHT   1600   80      40/  4/  5 1016.8
GRAND ISLE       1600   82 81   70/ 12/ 13 1017.0
SOUTHWEST PASS   1600   89 89   80/ 12/ 15 1016.3
NEW CANAL        1600   79 80   50/  9/ 10 1017.5
SHELL BEACH      1600   79 77   30/ 14/ 16 1016.8

OFFSHORE STATIONS

STATION/POSITION TIME  TEMP    WIND        PRES    WAVE
                       AIR SEA DIR/SP/G            HT/PER
                 (UTC) (F)     (DEG/KT/KT) (MB)    (FT/S)
64 S DAUPHIN ISL 1533   81 84  100/ 19/ 23 1016.5    4/ 5

$$



USA.gov is the U.S. government's official web portal to all federal, state and local government web resources and services.